AAL27 MDPC-TISX

Flight info

Callsign AAL27
Flight time 0h 40m
Altitude 27000
Route MELLA3T MELLA G633 MAZ RTE12 JOSHE RTE4 VEDAS G633 SNOOZ
Aircraft A21N/M-SDE3FGHIRWY/LB1

Departure

Time 2026-05-04 22:43
Airport Punta Cana International Airport (MDPC)

Arrival

Time 2026-05-04 23:24
Airport Henry E. Rohlsen Airport (TISX)
Time Latitude Longitude Altitude Speed Heading
2026-05-04 22:22 18.56410 -68.36018 37 ft 0 kts 174°
2026-05-04 22:33 18.56420 -68.36018 37 ft 2 kts 174°
2026-05-04 22:33 18.56434 -68.36020 37 ft 2 kts 174°
2026-05-04 22:33 18.56450 -68.36021 37 ft 2 kts 174°
2026-05-04 22:34 18.56459 -68.36023 37 ft 2 kts 171°
2026-05-04 22:34 18.56473 -68.36028 38 ft 2 kts 145°
2026-05-04 22:34 18.56484 -68.36039 38 ft 2 kts 126°
2026-05-04 22:34 18.56491 -68.36053 38 ft 2 kts 106°
2026-05-04 22:35 18.56493 -68.36068 38 ft 0 kts 88°
2026-05-04 22:35 18.56493 -68.36075 38 ft 1 kts 83°
2026-05-04 22:35 18.56493 -68.36076 38 ft 0 kts 84°
2026-05-04 22:38 18.56494 -68.36063 38 ft 5 kts 84°
2026-05-04 22:38 18.56501 -68.35984 37 ft 15 kts 85°
2026-05-04 22:38 18.56511 -68.35847 37 ft 16 kts 84°
2026-05-04 22:39 18.56566 -68.35775 37 ft 13 kts
2026-05-04 22:39 18.56664 -68.35780 37 ft 14 kts 356°
2026-05-04 22:39 18.56766 -68.35787 37 ft 14 kts 355°
2026-05-04 22:39 18.56871 -68.35798 37 ft 15 kts 354°
2026-05-04 22:40 18.56980 -68.35808 37 ft 15 kts 357°
2026-05-04 22:40 18.57091 -68.35813 38 ft 16 kts 357°
2026-05-04 22:40 18.57206 -68.35820 38 ft 16 kts 356°
2026-05-04 22:40 18.57321 -68.35828 38 ft 16 kts 356°
2026-05-04 22:41 18.57439 -68.35836 38 ft 16 kts 353°
2026-05-04 22:41 18.57535 -68.35819 38 ft 14 kts 58°
2026-05-04 22:41 18.57565 -68.35721 38 ft 14 kts 75°
2026-05-04 22:41 18.57592 -68.35622 39 ft 13 kts 75°
2026-05-04 22:42 18.57621 -68.35525 39 ft 13 kts 71°
2026-05-04 22:42 18.57678 -68.35461 39 ft 12 kts
2026-05-04 22:42 18.57761 -68.35482 39 ft 12 kts 335°
2026-05-04 22:42 18.57797 -68.35554 39 ft 12 kts 259°
2026-05-04 22:43 18.57732 -68.35782 38 ft 66 kts 252°
2026-05-04 22:43 18.57533 -68.36492 39 ft 135 kts 253°
2026-05-04 22:43 18.57219 -68.37628 139 ft 181 kts 250°
2026-05-04 22:43 18.56881 -68.38924 778 ft 185 kts 252°
2026-05-04 22:44 18.56581 -68.40215 1595 ft 184 kts 253°
2026-05-04 22:44 18.56297 -68.41529 2294 ft 186 kts 249°
2026-05-04 22:44 18.55563 -68.42629 2706 ft 191 kts 207°
2026-05-04 22:44 18.54262 -68.43012 3158 ft 199 kts 177°
2026-05-04 22:45 18.52866 -68.42690 3626 ft 212 kts 159°
2026-05-04 22:45 18.49733 -68.41618 4540 ft 255 kts 161°
2026-05-04 22:45 18.48008 -68.41074 5299 ft 264 kts 162°
2026-05-04 22:46 18.46222 -68.40527 6111 ft 267 kts 162°
2026-05-04 22:46 18.44442 -68.39988 6648 ft 270 kts 163°
2026-05-04 22:46 18.42622 -68.39441 6936 ft 271 kts 163°
2026-05-04 22:46 18.40788 -68.38855 6977 ft 271 kts 156°
2026-05-04 22:47 18.39258 -68.37721 6982 ft 271 kts 130°
2026-05-04 22:47 18.38255 -68.35998 7345 ft 279 kts 118°
2026-05-04 22:47 18.37357 -68.34184 8271 ft 279 kts 118°
2026-05-04 22:47 18.36458 -68.32388 9089 ft 282 kts 118°
2026-05-04 22:48 18.35531 -68.30547 9814 ft 287 kts 118°
2026-05-04 22:48 18.34589 -68.28683 10481 ft 295 kts 118°
2026-05-04 22:48 18.33602 -68.26733 10879 ft 311 kts 118°
2026-05-04 22:48 18.32556 -68.24670 11219 ft 329 kts 118°
2026-05-04 22:49 18.31441 -68.22472 11534 ft 347 kts 118°
2026-05-04 22:49 18.30274 -68.20177 12029 ft 357 kts 118°
2026-05-04 22:49 18.29111 -68.17889 12683 ft 361 kts 117°
2026-05-04 22:49 18.27911 -68.15532 13335 ft 365 kts 117°
2026-05-04 22:50 18.26722 -68.13192 13939 ft 370 kts 117°
2026-05-04 22:50 18.25497 -68.10781 14521 ft 376 kts 118°
2026-05-04 22:50 18.24263 -68.08357 15094 ft 381 kts 118°
2026-05-04 22:50 18.23007 -68.05891 15654 ft 387 kts 118°
2026-05-04 22:51 18.21713 -68.03352 16223 ft 392 kts 117°
2026-05-04 22:51 18.20673 -68.00726 16769 ft 397 kts 105°
2026-05-04 22:51 18.20193 -67.97877 17319 ft 400 kts 92°
2026-05-04 22:51 18.20253 -67.94949 17858 ft 404 kts 85°
2026-05-04 22:52 18.20475 -67.92001 18426 ft 407 kts 84°
2026-05-04 22:52 18.20716 -67.89025 19008 ft 409 kts 84°
2026-05-04 22:52 18.20947 -67.86040 19563 ft 412 kts 85°
2026-05-04 22:52 18.21168 -67.83037 20108 ft 414 kts 85°
2026-05-04 22:53 18.21381 -67.80016 20797 ft 412 kts 86°
2026-05-04 22:53 18.21586 -67.77059 21558 ft 407 kts 86°
2026-05-04 22:53 18.21785 -67.74126 22259 ft 403 kts 87°
2026-05-04 22:53 18.21981 -67.71203 22933 ft 401 kts 86°
2026-05-04 22:54 18.22172 -67.68290 23533 ft 400 kts 86°
2026-05-04 22:54 18.22364 -67.65369 24088 ft 401 kts 86°
2026-05-04 22:54 18.22557 -67.62436 24657 ft 400 kts 86°
2026-05-04 22:54 18.22751 -67.59499 25236 ft 399 kts 86°
2026-05-04 22:55 18.22943 -67.56594 25781 ft 399 kts 85°
2026-05-04 22:55 18.23137 -67.53673 26227 ft 402 kts 85°
2026-05-04 22:55 18.23332 -67.50726 26649 ft 404 kts 85°
2026-05-04 22:55 18.23528 -67.47779 26960 ft 408 kts 85°
2026-05-04 22:56 18.23728 -67.44805 26999 ft 409 kts 85°
2026-05-04 22:56 18.23928 -67.41793 27003 ft 409 kts 85°
2026-05-04 22:56 18.24123 -67.38829 27004 ft 410 kts 85°
2026-05-04 22:56 18.24318 -67.35861 27006 ft 409 kts 85°
2026-05-04 22:57 18.24512 -67.32870 27005 ft 409 kts 85°
2026-05-04 22:57 18.24704 -67.29903 27008 ft 409 kts 85°
2026-05-04 22:57 18.24899 -67.26898 27008 ft 408 kts 85°
2026-05-04 22:57 18.25090 -67.23927 27009 ft 408 kts 85°
2026-05-04 22:58 18.25282 -67.20955 27009 ft 409 kts 85°
2026-05-04 22:58 18.25474 -67.17978 27012 ft 408 kts 85°
2026-05-04 22:58 18.25616 -67.15040 27013 ft 408 kts 88°
2026-05-04 22:58 18.25612 -67.12044 27018 ft 409 kts 90°
2026-05-04 22:59 18.25555 -67.09059 27020 ft 408 kts 90°
2026-05-04 22:59 18.25491 -67.06074 27024 ft 408 kts 91°
2026-05-04 22:59 18.25425 -67.03067 27029 ft 408 kts 90°
2026-05-04 22:59 18.25361 -67.00102 27031 ft 408 kts 90°
2026-05-04 23:00 18.25298 -66.97126 27033 ft 408 kts 90°
2026-05-04 23:00 18.25233 -66.94097 27036 ft 408 kts 90°
2026-05-04 23:00 18.25170 -66.91116 27039 ft 408 kts 91°
2026-05-04 23:00 18.25106 -66.88137 27042 ft 408 kts 90°
2026-05-04 23:01 18.25042 -66.85152 27046 ft 408 kts 91°
2026-05-04 23:01 18.24977 -66.82198 27049 ft 408 kts 90°
2026-05-04 23:01 18.24912 -66.79198 27051 ft 408 kts 90°
2026-05-04 23:01 18.24846 -66.76228 27055 ft 408 kts 90°
2026-05-04 23:02 18.24779 -66.73247 27058 ft 408 kts 90°
2026-05-04 23:02 18.24712 -66.70258 27059 ft 408 kts 90°
2026-05-04 23:02 18.24644 -66.67268 27056 ft 408 kts 90°
2026-05-04 23:02 18.24576 -66.64294 27056 ft 408 kts 90°
2026-05-04 23:03 18.24507 -66.61295 27053 ft 408 kts 90°
2026-05-04 23:03 18.24438 -66.58307 27051 ft 408 kts 90°
2026-05-04 23:03 18.24370 -66.55318 27049 ft 408 kts 90°
2026-05-04 23:03 18.24230 -66.52376 27042 ft 408 kts 95°
2026-05-04 23:04 18.23717 -66.49425 27043 ft 409 kts 104°
2026-05-04 23:04 18.22810 -66.46599 27043 ft 409 kts 111°
2026-05-04 23:04 18.21679 -66.43879 27046 ft 409 kts 114°
2026-05-04 23:04 18.20494 -66.41148 27045 ft 409 kts 114°
2026-05-04 23:05 18.19305 -66.38406 27016 ft 410 kts 113°
2026-05-04 23:05 18.18122 -66.35646 26769 ft 408 kts 113°
2026-05-04 23:05 18.16979 -66.32955 26526 ft 405 kts 114°
2026-05-04 23:05 18.15838 -66.30264 26238 ft 402 kts 113°
2026-05-04 23:06 18.14707 -66.27598 25889 ft 398 kts 114°
2026-05-04 23:06 18.13569 -66.24918 25490 ft 397 kts 114°
2026-05-04 23:06 18.12459 -66.22302 25075 ft 397 kts 114°
2026-05-04 23:06 18.11323 -66.19627 24625 ft 396 kts 114°
2026-05-04 23:07 18.10209 -66.17006 24173 ft 396 kts 114°
2026-05-04 23:07 18.09084 -66.14365 23706 ft 396 kts 114°
2026-05-04 23:07 18.07970 -66.11751 23235 ft 396 kts 115°
2026-05-04 23:07 18.06841 -66.09103 22748 ft 397 kts 115°
2026-05-04 23:08 18.05709 -66.06445 22216 ft 397 kts 115°
2026-05-04 23:08 18.04587 -66.03818 21620 ft 399 kts 115°
2026-05-04 23:08 18.03441 -66.01137 20924 ft 403 kts 115°
2026-05-04 23:08 18.02301 -65.98469 20167 ft 409 kts 114°
2026-05-04 23:09 18.01131 -65.95729 19503 ft 411 kts 114°
2026-05-04 23:09 17.99964 -65.92999 18850 ft 413 kts 114°
2026-05-04 23:09 17.98830 -65.90208 18209 ft 414 kts 111°
2026-05-04 23:09 17.97908 -65.87360 17579 ft 414 kts 106°
2026-05-04 23:10 17.97210 -65.84458 16956 ft 414 kts 102°
2026-05-04 23:10 17.96608 -65.81527 16417 ft 410 kts 101°
2026-05-04 23:10 17.96026 -65.78614 15930 ft 405 kts 101°
2026-05-04 23:10 17.95450 -65.75751 15467 ft 400 kts 101°
2026-05-04 23:11 17.94870 -65.72888 15014 ft 395 kts 101°
2026-05-04 23:11 17.94303 -65.70112 14569 ft 390 kts 102°
2026-05-04 23:11 17.93739 -65.67362 14164 ft 383 kts 102°
2026-05-04 23:11 17.93182 -65.64661 14018 ft 371 kts 102°
2026-05-04 23:12 17.92634 -65.62004 14019 ft 371 kts 102°
2026-05-04 23:12 17.92087 -65.59352 14017 ft 371 kts 102°
2026-05-04 23:12 17.91544 -65.56718 14017 ft 372 kts 102°
2026-05-04 23:12 17.90996 -65.54058 13951 ft 371 kts 102°
2026-05-04 23:13 17.90455 -65.51433 13520 ft 371 kts 102°
2026-05-04 23:13 17.89910 -65.48786 12999 ft 368 kts 102°
2026-05-04 23:13 17.89369 -65.46172 12484 ft 365 kts 102°
2026-05-04 23:13 17.88837 -65.43602 11970 ft 363 kts 102°
2026-05-04 23:14 17.88302 -65.41021 11449 ft 360 kts 102°
2026-05-04 23:14 17.87775 -65.38480 10932 ft 357 kts 102°
2026-05-04 23:14 17.87249 -65.35942 10379 ft 356 kts 102°
2026-05-04 23:14 17.86718 -65.33386 9780 ft 355 kts 102°
2026-05-04 23:15 17.86192 -65.30855 9185 ft 354 kts 102°
2026-05-04 23:15 17.85677 -65.28377 8673 ft 350 kts 102°
2026-05-04 23:15 17.85158 -65.25885 8304 ft 342 kts 102°
2026-05-04 23:15 17.84664 -65.23517 7962 ft 333 kts 103°
2026-05-04 23:16 17.84171 -65.21149 7557 ft 327 kts 102°
2026-05-04 23:16 17.83686 -65.18828 7216 ft 319 kts 103°
2026-05-04 23:16 17.83219 -65.16592 6818 ft 314 kts 102°
2026-05-04 23:16 17.82756 -65.14373 6444 ft 308 kts 103°
2026-05-04 23:17 17.82300 -65.12189 6060 ft 303 kts 103°
2026-05-04 23:17 17.81851 -65.10062 5681 ft 298 kts 104°
2026-05-04 23:17 17.81011 -65.08124 5258 ft 294 kts 129°
2026-05-04 23:17 17.79390 -65.06839 4924 ft 290 kts 149°
2026-05-04 23:18 17.77636 -65.05807 4576 ft 285 kts 148°
2026-05-04 23:18 17.75934 -65.04774 4238 ft 280 kts 148°
2026-05-04 23:18 17.74279 -65.03743 3914 ft 275 kts 147°
2026-05-04 23:18 17.72654 -65.02716 3672 ft 267 kts 147°
2026-05-04 23:19 17.71102 -65.01730 3580 ft 250 kts 146°
2026-05-04 23:19 17.69656 -65.00809 3495 ft 231 kts 146°
2026-05-04 23:19 17.68405 -64.99834 3291 ft 220 kts 125°
2026-05-04 23:19 17.67954 -64.98367 3118 ft 218 kts 86°
2026-05-04 23:20 17.68239 -64.96803 2922 ft 212 kts 78°
2026-05-04 23:20 17.68547 -64.95335 2638 ft 203 kts 81°
2026-05-04 23:20 17.68770 -64.93889 2377 ft 199 kts 84°
2026-05-04 23:20 17.68924 -64.92503 2183 ft 184 kts 85°
2026-05-04 23:21 17.69048 -64.91201 1872 ft 176 kts 86°
2026-05-04 23:21 17.69166 -64.89960 1665 ft 163 kts 85°
2026-05-04 23:21 17.69280 -64.88813 1427 ft 152 kts 86°
2026-05-04 23:21 17.69384 -64.87775 1223 ft 136 kts 86°
2026-05-04 23:22 17.69481 -64.86797 1074 ft 135 kts 86°
2026-05-04 23:22 17.69578 -64.85824 881 ft 134 kts 85°
2026-05-04 23:22 17.69680 -64.84849 674 ft 134 kts 85°
2026-05-04 23:22 17.69774 -64.83876 488 ft 133 kts 86°
2026-05-04 23:23 17.69870 -64.82904 330 ft 133 kts 85°
2026-05-04 23:23 17.69975 -64.81949 174 ft 132 kts 85°
2026-05-04 23:23 17.70071 -64.80997 80 ft 123 kts 84°
2026-05-04 23:23 17.70144 -64.80243 65 ft 86 kts 83°
2026-05-04 23:24 17.70199 -64.79756 58 ft 45 kts 85°
2026-05-04 23:24 17.70227 -64.79449 56 ft 30 kts 84°
2026-05-04 23:24 17.70162 -64.79334 54 ft 16 kts 165°
2026-05-04 23:24 17.70080 -64.79376 54 ft 14 kts 257°
2026-05-04 23:25 17.70075 -64.79478 55 ft 13 kts 272°
2026-05-04 23:25 17.70075 -64.79575 56 ft 13 kts 266°
2026-05-04 23:25 17.70066 -64.79662 57 ft 10 kts 248°
2026-05-04 23:25 17.70021 -64.79710 57 ft 8 kts 197°
2026-05-04 23:26 17.69979 -64.79710 57 ft 4 kts 124°
2026-05-04 23:26 17.69975 -64.79687 56 ft 0 kts 88°
2026-05-04 23:26 17.69976 -64.79680 56 ft 0 kts 85°
2026-05-04 23:34 17.69976 -64.79679 56 ft 0 kts 85°